| time (UTC) | temp F | wind direction | speed MPH | gust MPH | rain 1hr in | rain 24hr in | rain mn in | humidity % | barometer mb |
| 20260509173000 | 75 | 241 | 1.0 | 1.0 | 0.00 | 0.01 | 0.01 | 46 | 1007.4 |
| 20260509172457 | 75 | 272 | 3.0 | 5.0 | 0.00 | 0.01 | 0.01 | 44 | 1007.3 |
| 20260509171952 | 75 | 259 | 3.0 | 5.0 | 0.00 | 0.01 | 0.01 | 41 | 1007.3 |
| 20260509171449 | 75 | 273 | 4.0 | 7.0 | 0.00 | 0.01 | 0.01 | 42 | 1007.2 |
| 20260509170945 | 75 | 300 | 4.0 | 6.0 | 0.00 | 0.01 | 0.01 | 43 | 1007.3 |
| 20260509170440 | 75 | 259 | 5.0 | 6.0 | 0.00 | 0.01 | 0.01 | 44 | 1007.1 |
| 20260509165936 | 75 | 261 | 4.0 | 6.0 | 0.00 | 0.01 | 0.01 | 43 | 1007.0 |
| 20260509165430 | 73 | 279 | 3.0 | 3.0 | 0.00 | 0.01 | 0.01 | 46 | 1007.0 |
| 20260509164926 | 73 | 314 | 5.0 | 7.0 | 0.00 | 0.01 | 0.01 | 44 | 1007.0 |
| 20260509164422 | 73 | 262 | 3.0 | 3.0 | 0.00 | 0.01 | 0.01 | 51 | 1006.9 |
| 20260509163918 | 72 | 276 | 1.0 | 1.0 | 0.00 | 0.01 | 0.01 | 55 | 1007.0 |
| 20260509163416 | 73 | 268 | 3.0 | 3.0 | 0.00 | 0.01 | 0.01 | 52 | 1007.0 |
| 20260509162915 | 73 | 252 | 2.0 | 2.0 | 0.00 | 0.01 | 0.01 | 54 | 1007.0 |
| 20260509162414 | 73 | 261 | 2.0 | 3.0 | 0.00 | 0.01 | 0.01 | 54 | 1007.0 |
| 20260509161909 | 72 | 270 | 3.0 | 5.0 | 0.00 | 0.01 | 0.01 | 53 | 1007.3 |
| 20260509161406 | 71 | 219 | 1.0 | 1.0 | 0.00 | 0.01 | 0.01 | 55 | 1007.1 |
| 20260509160902 | 71 | 280 | 2.0 | 2.0 | 0.00 | 0.01 | 0.01 | 55 | 1007.2 |
| 20260509160357 | 71 | 260 | 2.0 | 2.0 | 0.00 | 0.01 | 0.01 | 58 | 1007.0 |
| 20260509155853 | 70 | 255 | 2.0 | 3.0 | 0.00 | 0.01 | 0.01 | 62 | 1007.0 |
| 20260509155349 | 70 | 226 | 1.0 | 1.0 | 0.00 | 0.01 | 0.01 | 59 | 1007.1 |
| 20260509154846 | 69 | 269 | 2.0 | 2.0 | 0.00 | 0.01 | 0.01 | 61 | 1007.1 |
| 20260509154343 | 69 | 254 | 4.0 | 5.0 | 0.00 | 0.01 | 0.01 | 61 | 1006.7 |
| 20260509153839 | 69 | 274 | 3.0 | 5.0 | 0.00 | 0.01 | 0.01 | 63 | 1006.7 |
| 20260509153337 | 68 | 240 | 3.0 | 3.0 | 0.00 | 0.01 | 0.01 | 65 | 1006.7 |
| 20260509152833 | 67 | 219 | 1.0 | 1.0 | 0.00 | 0.01 | 0.01 | 67 | 1006.7 |
| 20260509152329 | 67 | 261 | 3.0 | 3.0 | 0.00 | 0.01 | 0.01 | 67 | 1007.0 |
| 20260509151827 | 66 | 261 | 2.0 | 2.0 | 0.00 | 0.01 | 0.01 | 68 | 1006.8 |
| 20260509151322 | 66 | 235 | 3.0 | 3.0 | 0.00 | 0.01 | 0.01 | 67 | 1006.7 |
| 20260509150821 | 66 | 243 | 2.0 | 2.0 | 0.00 | 0.01 | 0.01 | 69 | 1006.7 |
| 20260509150318 | 65 | 246 | 4.0 | 6.0 | 0.00 | 0.01 | 0.01 | 72 | 1006.8 |
| 20260509145815 | 67 | 269 | 6.0 | 7.0 | 0.00 | 0.01 | 0.01 | 70 | 1006.8 |
| 20260509145315 | 66 | 295 | 1.0 | 2.0 | 0.00 | 0.01 | 0.01 | 73 | 1007.0 |
| 20260509144812 | 64 | 223 | 3.0 | 3.0 | 0.00 | 0.01 | 0.01 | 75 | 1006.7 |
| 20260509144309 | 64 | 282 | 4.0 | 5.0 | 0.00 | 0.01 | 0.01 | 75 | 1006.7 |
| 20260509143806 | 64 | 239 | 3.0 | 3.0 | 0.00 | 0.01 | 0.01 | 76 | 1006.9 |
| 20260509143304 | 64 | 203 | 2.0 | 2.0 | 0.00 | 0.01 | 0.01 | 76 | 1006.6 |
| 20260509142800 | 64 | 235 | 2.0 | 2.0 | 0.00 | 0.01 | 0.01 | 77 | 1006.7 |
| 20260509142256 | 63 | 245 | 1.0 | 1.0 | 0.00 | 0.01 | 0.01 | 80 | 1006.9 |
| 20260509141751 | 62 | 309 | 4.0 | 5.0 | 0.00 | 0.01 | 0.01 | 80 | 1006.9 |
| 20260509141249 | 61 | 259 | 7.0 | 10.0 | 0.00 | 0.01 | 0.01 | 81 | 1007.0 |
| 20260509140745 | 62 | 251 | 3.0 | 5.0 | 0.00 | 0.01 | 0.01 | 82 | 1006.9 |
| 20260509140242 | 61 | 266 | 3.0 | 3.0 | 0.00 | 0.01 | 0.01 | 83 | 1006.6 |
| 20260509135740 | 62 | 250 | 1.0 | 2.0 | 0.00 | 0.01 | 0.01 | 84 | 1007.1 |
| 20260509135238 | 60 | 239 | 4.0 | 5.0 | 0.00 | 0.01 | 0.01 | 86 | 1007.0 |
| 20260509134734 | 60 | 265 | 2.0 | 2.0 | 0.00 | 0.01 | 0.01 | 87 | 1007.0 |
| 20260509134232 | 60 | 290 | 6.0 | 8.0 | 0.00 | 0.01 | 0.01 | 86 | 1006.8 |
| 20260509133729 | 60 | 258 | 2.0 | 3.0 | 0.00 | 0.01 | 0.01 | 88 | 1006.8 |
| 20260509133225 | 59 | 241 | 4.0 | 5.0 | 0.00 | 0.01 | 0.01 | 88 | 1006.9 |
| 20260509132724 | 59 | 272 | 4.0 | 7.0 | 0.00 | 0.01 | 0.01 | 88 | 1006.7 |
| 20260509132222 | 59 | 231 | 2.0 | 2.0 | 0.00 | 0.01 | 0.01 | 89 | 1006.8 |
| 20260509131718 | 59 | 245 | 2.0 | 2.0 | 0.00 | 0.01 | 0.01 | 90 | 1006.7 |
| 20260509131215 | 58 | 263 | 3.0 | 3.0 | 0.00 | 0.01 | 0.01 | 91 | 1006.7 |
| 20260509130711 | 58 | 240 | 3.0 | 5.0 | 0.00 | 0.01 | 0.01 | 91 | 1006.3 |
| 20260509130207 | 58 | 289 | 3.0 | 5.0 | 0.00 | 0.01 | 0.01 | 92 | 1006.2 |
| 20260509125704 | 57 | 245 | 2.0 | 2.0 | 0.00 | 0.01 | 0.01 | 93 | 1006.2 |
| 20260509125201 | 57 | 282 | 3.0 | 3.0 | 0.00 | 0.01 | 0.01 | 94 | 1006.3 |
| 20260509124657 | 57 | 248 | 4.0 | 7.0 | 0.00 | 0.01 | 0.01 | 95 | 1006.2 |
| 20260509124154 | 56 | 250 | 4.0 | 5.0 | 0.07 | 0.01 | 0.01 | 96 | 1006.3 |
| 20260509123652 | 55 | 302 | 6.0 | 8.0 | 0.07 | 0.01 | 0.01 | 96 | 1006.0 |
| 20260509123149 | 55 | 268 | 2.0 | 2.0 | 0.00 | 0.00 | 0.00 | 97 | 1006.0 |
| 20260509122644 | 55 | 228 | 4.0 | 6.0 | 0.00 | 0.00 | 0.00 | 97 | 1006.1 |
| 20260509122142 | 55 | 265 | 3.0 | 3.0 | 0.00 | 0.00 | 0.00 | 97 | 1006.2 |
| 20260509121638 | 54 | 261 | 4.0 | 7.0 | 0.00 | 0.00 | 0.00 | 98 | 1006.1 |
| 20260509121136 | 54 | 268 | 4.0 | 5.0 | 0.00 | 0.00 | 0.00 | 98 | 1006.2 |
| 20260509120634 | 54 | 239 | 2.0 | 2.0 | 0.00 | 0.00 | 0.00 | 98 | 1005.8 |
| 20260509120132 | 54 | 225 | 1.0 | 2.0 | 0.00 | 0.00 | 0.00 | 98 | 1006.0 |
| 20260509115629 | 53 | 226 | 1.0 | 2.0 | 0.00 | 0.00 | 0.00 | 98 | 1005.8 |
| 20260509115127 | 53 | 256 | 2.0 | 2.0 | 0.00 | 0.00 | 0.00 | 98 | 1005.9 |
| 20260509114625 | 53 | 236 | 1.0 | 1.0 | 0.00 | 0.00 | 0.00 | 98 | 1005.9 |
| 20260509114123 | 53 | 231 | 1.0 | 1.0 | 0.00 | 0.00 | 0.00 | 98 | 1005.9 |
| 20260509113621 | 53 | 233 | 0.0 | 1.0 | 0.00 | 0.00 | 0.00 | 99 | 1005.9 |
| 20260509113118 | 52 | 255 | 1.0 | 2.0 | 0.00 | 0.00 | 0.00 | 99 | 1005.8 |
| 20260509112614 | 52 | 230 | 1.0 | 1.0 | 0.00 | 0.00 | 0.00 | 99 | 1005.8 |
| 20260509112112 | 52 | 232 | 1.0 | 1.0 | 0.00 | 0.00 | 0.00 | 99 | 1005.7 |
| 20260509111609 | 52 | 232 | 0.0 | 1.0 | 0.00 | 0.00 | 0.00 | 99 | 1005.5 |
| 20260509111106 | 52 | 229 | 1.0 | 1.0 | 0.00 | 0.00 | 0.00 | 99 | 1005.4 |
| 20260509110603 | 52 | 235 | 1.0 | 1.0 | 0.00 | 0.00 | 0.00 | 99 | 1005.4 |
| 20260509110100 | 52 | 234 | 1.0 | 1.0 | 0.00 | 0.00 | 0.00 | 99 | 1005.6 |
| 20260509105558 | 52 | 244 | 1.0 | 2.0 | 0.00 | 0.00 | 0.00 | 99 | 1005.5 |
| 20260509105055 | 52 | 248 | 2.0 | 2.0 | 0.00 | 0.00 | 0.00 | 99 | 1005.7 |
| 20260509104552 | 52 | 250 | 2.0 | 2.0 | 0.00 | 0.00 | 0.00 | 99 | 1005.6 |
| 20260509104049 | 52 | 228 | 2.0 | 3.0 | 0.00 | 0.00 | 0.00 | 99 | 1005.6 |
| 20260509103547 | 52 | 241 | 4.0 | 6.0 | 0.00 | 0.00 | 0.00 | 99 | 1005.6 |
| 20260509103045 | 52 | 260 | 2.0 | 3.0 | 0.00 | 0.00 | 0.00 | 99 | 1005.5 |
| 20260509102542 | 52 | 237 | 2.0 | 2.0 | 0.00 | 0.00 | 0.00 | 99 | 1005.5 |
| 20260509102039 | 52 | 230 | 4.0 | 7.0 | 0.00 | 0.00 | 0.00 | 99 | 1005.4 |
| 20260509101535 | 52 | 248 | 2.0 | 2.0 | 0.00 | 0.00 | 0.00 | 99 | 1005.6 |
| 20260509101032 | 52 | 241 | 1.0 | 2.0 | 0.00 | 0.00 | 0.00 | 99 | 1005.6 |
| 20260509100529 | 52 | 260 | 3.0 | 3.0 | 0.00 | 0.00 | 0.00 | 99 | 1005.5 |
| 20260509100026 | 52 | 234 | 3.0 | 3.0 | 0.00 | 0.00 | 0.00 | 99 | 1005.7 |
| 20260509095523 | 52 | 243 | 1.0 | 2.0 | 0.00 | 0.00 | 0.00 | 99 | 1005.7 |
| 20260509095020 | 52 | 241 | 1.0 | 1.0 | 0.00 | 0.00 | 0.00 | 98 | 1005.4 |
| 20260509094516 | 52 | 227 | 1.0 | 1.0 | 0.00 | 0.00 | 0.00 | 98 | 1005.5 |
| 20260509094014 | 52 | 245 | 2.0 | 2.0 | 0.00 | 0.00 | 0.00 | 98 | 1005.5 |
| 20260509093512 | 52 | 245 | 3.0 | 3.0 | 0.00 | 0.00 | 0.00 | 98 | 1005.6 |
| 20260509093009 | 52 | 255 | 3.0 | 3.0 | 0.00 | 0.00 | 0.00 | 98 | 1005.7 |
| 20260509092507 | 52 | 260 | 3.0 | 3.0 | 0.00 | 0.00 | 0.00 | 98 | 1005.5 |
| 20260509092006 | 52 | 232 | 1.0 | 1.0 | 0.00 | 0.00 | 0.00 | 98 | 1005.7 |
| 20260509091502 | 51 | 247 | 1.0 | 1.0 | 0.00 | 0.00 | 0.00 | 98 | 1005.4 |
| 20260509090959 | 51 | 248 | 1.0 | 1.0 | 0.00 | 0.00 | 0.00 | 98 | 1005.5 |
| 20260509090456 | 51 | 239 | 3.0 | 3.0 | 0.00 | 0.00 | 0.00 | 98 | 1005.6 |
| 20260509085954 | 51 | 241 | 2.0 | 2.0 | 0.00 | 0.00 | 0.00 | 98 | 1005.5 |
| 20260509085451 | 51 | 241 | 1.0 | 1.0 | 0.00 | 0.00 | 0.00 | 98 | 1005.4 |
| 20260509084947 | 51 | 247 | 2.0 | 2.0 | 0.00 | 0.00 | 0.00 | 98 | 1005.7 |
| 20260509084444 | 51 | 262 | 2.0 | 2.0 | 0.00 | 0.00 | 0.00 | 98 | 1005.5 |
| 20260509083941 | 51 | 240 | 1.0 | 1.0 | 0.00 | 0.00 | 0.00 | 98 | 1005.4 |
| 20260509083438 | 51 | 230 | 1.0 | 1.0 | 0.00 | 0.00 | 0.00 | 98 | 1005.4 |
| 20260509082935 | 51 | 252 | 3.0 | 5.0 | 0.00 | 0.00 | 0.00 | 98 | 1005.7 |
| 20260509082432 | 51 | 261 | 3.0 | 3.0 | 0.00 | 0.00 | 0.00 | 98 | 1005.6 |
| 20260509081929 | 51 | 240 | 1.0 | 2.0 | 0.00 | 0.00 | 0.00 | 98 | 1005.4 |
| 20260509081426 | 51 | 247 | 1.0 | 2.0 | 0.00 | 0.00 | 0.00 | 98 | 1005.4 |
| 20260509080924 | 51 | 248 | 3.0 | 3.0 | 0.00 | 0.00 | 0.00 | 98 | 1005.4 |
| 20260509080421 | 51 | 252 | 3.0 | 5.0 | 0.00 | 0.00 | 0.00 | 98 | 1005.6 |
| 20260509075920 | 51 | 238 | 1.0 | 2.0 | 0.00 | 0.00 | 0.00 | 98 | 1005.3 |
| 20260509075416 | 52 | 236 | 1.0 | 1.0 | 0.00 | 0.00 | 0.00 | 98 | 1005.5 |
| 20260509074914 | 51 | 231 | 2.0 | 3.0 | 0.00 | 0.00 | 0.00 | 98 | 1005.7 |
| 20260509074411 | 52 | 259 | 2.0 | 2.0 | 0.00 | 0.00 | 0.00 | 98 | 1005.4 |
| 20260509073907 | 52 | 241 | 1.0 | 1.0 | 0.00 | 0.00 | 0.00 | 98 | 1005.5 |
| 20260509073404 | 52 | 242 | 2.0 | 2.0 | 0.00 | 0.00 | 0.00 | 98 | 1005.4 |
| 20260509072900 | 52 | 246 | 2.0 | 2.0 | 0.00 | 0.00 | 0.00 | 98 | 1005.4 |
| 20260509072357 | 52 | 252 | 3.0 | 3.0 | 0.00 | 0.00 | 0.00 | 98 | 1005.7 |
| 20260509071854 | 52 | 259 | 3.0 | 3.0 | 0.00 | 0.00 | 0.00 | 98 | 1005.8 |
| 20260509071351 | 52 | 224 | 1.0 | 1.0 | 0.00 | 0.00 | 0.00 | 98 | 1005.6 |
| 20260509070848 | 52 | 255 | 1.0 | 1.0 | 0.00 | 0.00 | 0.00 | 98 | 1005.6 |
| 20260509070345 | 52 | 224 | 2.0 | 3.0 | 0.00 | 0.00 | 0.00 | 98 | 1005.6 |
| 20260509065841 | 52 | 230 | 1.0 | 2.0 | 0.00 | 0.00 | 0.00 | 98 | 1005.7 |
| 20260509065337 | 52 | 221 | 2.0 | 2.0 | 0.00 | 0.00 | 0.00 | 97 | 1005.7 |
| 20260509064833 | 52 | 240 | 3.0 | 3.0 | 0.00 | 0.00 | 0.00 | 97 | 1005.8 |
| 20260509064331 | 52 | 221 | 3.0 | 3.0 | 0.00 | 0.00 | 0.00 | 97 | 1005.9 |
| 20260509063828 | 52 | 219 | 3.0 | 3.0 | 0.00 | 0.00 | 0.00 | 97 | 1006.0 |
| 20260509063324 | 52 | 208 | 2.0 | 2.0 | 0.00 | 0.00 | 0.00 | 97 | 1006.0 |
| 20260509062822 | 52 | 211 | 1.0 | 2.0 | 0.00 | 0.00 | 0.00 | 97 | 1006.1 |
| 20260509062318 | 52 | 225 | 2.0 | 2.0 | 0.00 | 0.00 | 0.00 | 97 | 1006.1 |
| 20260509061816 | 52 | 219 | 2.0 | 2.0 | 0.00 | 0.00 | 0.00 | 97 | 1006.0 |
| 20260509061314 | 52 | 223 | 2.0 | 2.0 | 0.00 | 0.00 | 0.00 | 97 | 1006.1 |
| 20260509060810 | 53 | 225 | 2.0 | 2.0 | 0.00 | 0.00 | 0.00 | 97 | 1006.2 |
| 20260509060307 | 53 | 227 | 1.0 | 2.0 | 0.00 | 0.00 | 0.00 | 97 | 1006.1 |
| 20260509055803 | 53 | 210 | 2.0 | 3.0 | 0.00 | 0.00 | 0.00 | 97 | 1006.6 |
| 20260509055258 | 53 | 207 | 3.0 | 3.0 | 0.00 | 0.00 | 0.00 | 97 | 1006.6 |
| 20260509054755 | 53 | 226 | 2.0 | 2.0 | 0.00 | 0.00 | 0.00 | 97 | 1006.6 |
| 20260509054252 | 53 | 198 | 2.0 | 2.0 | 0.00 | 0.00 | 0.00 | 97 | 1006.4 |
| 20260509053751 | 53 | 230 | 2.0 | 2.0 | 0.00 | 0.00 | 0.00 | 97 | 1006.7 |
| 20260509053247 | 53 | 229 | 1.0 | 1.0 | 0.00 | 0.00 | 0.00 | 97 | 1006.3 |
| 20260509052745 | 53 | 237 | 1.0 | 1.0 | 0.00 | 0.00 | 0.00 | 97 | 1006.8 |
| 20260509052243 | 53 | 231 | 1.0 | 1.0 | 0.00 | 0.00 | 0.00 | 97 | 1006.7 |
| 20260509051740 | 53 | 245 | 3.0 | 3.0 | 0.00 | 0.00 | 0.00 | 97 | 1006.9 |
| 20260509051238 | 53 | 261 | 4.0 | 5.0 | 0.00 | 0.00 | 0.00 | 96 | 1006.7 |
| 20260509050735 | 53 | 250 | 1.0 | 1.0 | 0.00 | 0.00 | 0.00 | 96 | 1006.8 |
| 20260509050231 | 53 | 252 | 1.0 | 2.0 | 0.00 | 0.00 | 0.00 | 96 | 1006.9 |
| 20260509045728 | 53 | 244 | 2.0 | 2.0 | 0.00 | 0.07 | 0.07 | 96 | 1006.7 |
| 20260509045226 | 53 | 239 | 1.0 | 1.0 | 0.00 | 0.07 | 0.07 | 96 | 1006.7 |
| 20260509044723 | 53 | 247 | 3.0 | 3.0 | 0.00 | 0.07 | 0.07 | 96 | 1007.1 |
| 20260509044221 | 54 | 238 | 2.0 | 2.0 | 0.00 | 0.07 | 0.07 | 96 | 1007.0 |
| 20260509043716 | 53 | 236 | 1.0 | 2.0 | 0.00 | 0.07 | 0.07 | 96 | 1007.1 |
| 20260509043212 | 54 | 239 | 1.0 | 1.0 | 0.00 | 0.07 | 0.07 | 96 | 1007.1 |
| 20260509042709 | 54 | 219 | 2.0 | 2.0 | 0.00 | 0.07 | 0.07 | 96 | 1007.2 |
| 20260509042205 | 53 | 208 | 3.0 | 3.0 | 0.00 | 0.07 | 0.07 | 96 | 1007.2 |
| 20260509041702 | 53 | 236 | 1.0 | 2.0 | 0.00 | 0.07 | 0.07 | 96 | 1007.2 |
| 20260509041159 | 53 | 241 | 2.0 | 2.0 | 0.00 | 0.07 | 0.07 | 96 | 1007.0 |
| 20260509040658 | 53 | 214 | 2.0 | 2.0 | 0.00 | 0.07 | 0.07 | 96 | 1007.1 |
| 20260509040154 | 53 | 221 | 2.0 | 2.0 | 0.00 | 0.07 | 0.07 | 96 | 1007.3 |
| 20260509035651 | 54 | 233 | 1.0 | 1.0 | 0.00 | 0.07 | 0.07 | 96 | 1007.3 |
| 20260509035148 | 54 | 237 | 2.0 | 2.0 | 0.00 | 0.07 | 0.07 | 96 | 1007.5 |
| 20260509034645 | 54 | 240 | 1.0 | 1.0 | 0.00 | 0.07 | 0.07 | 96 | 1007.5 |
| 20260509034142 | 54 | 225 | 1.0 | 2.0 | 0.00 | 0.07 | 0.07 | 96 | 1007.5 |
| 20260509033639 | 54 | 239 | 1.0 | 1.0 | 0.00 | 0.07 | 0.07 | 96 | 1007.4 |
| 20260509033136 | 54 | 215 | 3.0 | 3.0 | 0.00 | 0.07 | 0.07 | 96 | 1007.3 |
| 20260509032633 | 54 | 242 | 1.0 | 2.0 | 0.00 | 0.07 | 0.07 | 96 | 1007.4 |
| 20260509032130 | 54 | 232 | 2.0 | 2.0 | 0.00 | 0.07 | 0.07 | 96 | 1007.7 |
| 20260509031628 | 54 | 230 | 2.0 | 2.0 | 0.00 | 0.07 | 0.07 | 96 | 1007.3 |
| 20260509031125 | 54 | 229 | 2.0 | 2.0 | 0.00 | 0.07 | 0.07 | 96 | 1007.3 |
| 20260509030623 | 54 | 218 | 2.0 | 2.0 | 0.00 | 0.07 | 0.07 | 96 | 1007.4 |
| 20260509030120 | 54 | 228 | 1.0 | 1.0 | 0.00 | 0.07 | 0.07 | 96 | 1007.4 |
| 20260509025616 | 54 | 241 | 1.0 | 1.0 | 0.00 | 0.07 | 0.07 | 96 | 1007.3 |
| 20260509025112 | 54 | 227 | 1.0 | 2.0 | 0.00 | 0.07 | 0.07 | 96 | 1007.4 |
| 20260509024607 | 55 | 216 | 2.0 | 2.0 | 0.00 | 0.07 | 0.07 | 95 | 1007.1 |
| 20260509024104 | 54 | 226 | 2.0 | 2.0 | 0.00 | 0.07 | 0.07 | 95 | 1007.2 |
| 20260509023602 | 54 | 221 | 3.0 | 3.0 | 0.00 | 0.07 | 0.07 | 95 | 1007.2 |
| 20260509023059 | 55 | 218 | 1.0 | 2.0 | 0.00 | 0.07 | 0.07 | 95 | 1007.2 |
| 20260509022555 | 55 | 230 | 1.0 | 1.0 | 0.00 | 0.07 | 0.07 | 95 | 1007.1 |
| 20260509022053 | 55 | 222 | 0.0 | 1.0 | 0.00 | 0.07 | 0.07 | 95 | 1006.9 |
| 20260509021549 | 55 | 221 | 2.0 | 2.0 | 0.00 | 0.07 | 0.07 | 95 | 1006.9 |
| 20260509021046 | 55 | 198 | 2.0 | 3.0 | 0.00 | 0.07 | 0.07 | 94 | 1007.1 |
| 20260509020545 | 55 | 202 | 1.0 | 1.0 | 0.00 | 0.07 | 0.07 | 94 | 1006.7 |
| 20260509020041 | 55 | 199 | 2.0 | 2.0 | 0.00 | 0.07 | 0.07 | 94 | 1006.7 |
| 20260509015541 | 55 | 187 | 1.0 | 1.0 | 0.00 | 0.07 | 0.07 | 93 | 1006.8 |
| 20260509015037 | 55 | 168 | 1.0 | 2.0 | 0.00 | 0.07 | 0.07 | 93 | 1006.7 |
| 20260509014534 | 55 | 198 | 2.0 | 2.0 | 0.00 | 0.07 | 0.07 | 93 | 1006.8 |
| 20260509014030 | 55 | 206 | 1.0 | 1.0 | 0.00 | 0.07 | 0.07 | 93 | 1006.7 |
| 20260509013527 | 56 | 189 | 1.0 | 1.0 | 0.00 | 0.07 | 0.07 | 92 | 1006.6 |
| 20260509013022 | 56 | 166 | 1.0 | 1.0 | 0.00 | 0.07 | 0.07 | 92 | 1006.7 |
| 20260509012520 | 57 | 201 | 0.0 | 0.0 | 0.00 | 0.07 | 0.07 | 90 | 1006.8 |
| 20260509012016 | 57 | 206 | 1.0 | 1.0 | 0.00 | 0.07 | 0.07 | 89 | 1006.8 |
| 20260509011515 | 57 | 210 | 0.0 | 0.0 | 0.00 | 0.07 | 0.07 | 89 | 1006.7 |
| 20260509011011 | 57 | 209 | 0.0 | 1.0 | 0.00 | 0.07 | 0.07 | 89 | 1006.8 |
| 20260509010509 | 58 | 200 | 1.0 | 1.0 | 0.00 | 0.07 | 0.07 | 87 | 1006.8 |
| 20260509010006 | 58 | 205 | 1.0 | 1.0 | 0.00 | 0.07 | 0.07 | 87 | 1006.7 |
| 20260509005504 | 59 | 209 | 1.0 | 1.0 | 0.00 | 0.07 | 0.07 | 85 | 1006.8 |
| 20260509005003 | 59 | 210 | 2.0 | 2.0 | 0.00 | 0.07 | 0.07 | 85 | 1006.4 |
| 20260509004501 | 59 | 199 | 2.0 | 2.0 | 0.00 | 0.07 | 0.07 | 85 | 1006.6 |
| 20260509003958 | 59 | 230 | 1.0 | 1.0 | 0.00 | 0.07 | 0.07 | 84 | 1006.6 |
| 20260509003456 | 59 | 205 | 2.0 | 2.0 | 0.00 | 0.07 | 0.07 | 84 | 1006.7 |
| 20260509002953 | 59 | 181 | 2.0 | 2.0 | 0.00 | 0.07 | 0.07 | 84 | 1006.4 |
| 20260509002451 | 60 | 226 | 1.0 | 1.0 | 0.00 | 0.07 | 0.07 | 83 | 1006.6 |
| 20260509001948 | 60 | 224 | 0.0 | 1.0 | 0.00 | 0.07 | 0.07 | 82 | 1006.4 |
| 20260509001444 | 60 | 199 | 2.0 | 2.0 | 0.00 | 0.07 | 0.07 | 81 | 1006.7 |
| 20260509000941 | 60 | 195 | 3.0 | 3.0 | 0.00 | 0.07 | 0.07 | 81 | 1006.6 |
| 20260509000440 | 60 | 199 | 3.0 | 3.0 | 0.00 | 0.07 | 0.07 | 80 | 1006.7 |
| 20260508235935 | 61 | 183 | 3.0 | 3.0 | 0.00 | 0.07 | 0.07 | 80 | 1006.8 |
| 20260508235433 | 61 | 205 | 2.0 | 2.0 | 0.00 | 0.07 | 0.07 | 80 | 1007.0 |
| 20260508234929 | 61 | 219 | 2.0 | 2.0 | 0.00 | 0.07 | 0.07 | 80 | 1007.2 |
| 20260508234426 | 61 | 233 | 1.0 | 1.0 | 0.00 | 0.07 | 0.07 | 80 | 1007.2 |
| 20260508233923 | 61 | 208 | 1.0 | 1.0 | 0.00 | 0.07 | 0.07 | 80 | 1007.3 |
| 20260508233423 | 61 | 222 | 1.0 | 2.0 | 0.00 | 0.07 | 0.07 | 80 | 1007.2 |
| 20260508232919 | 61 | 224 | 1.0 | 1.0 | 0.00 | 0.07 | 0.07 | 81 | 1007.2 |
| 20260508232416 | 61 | 201 | 3.0 | 3.0 | 0.00 | 0.07 | 0.07 | 81 | 1007.4 |
| 20260508231913 | 61 | 219 | 1.0 | 1.0 | 0.00 | 0.07 | 0.07 | 82 | 1007.2 |
| 20260508231410 | 61 | 207 | 2.0 | 2.0 | 0.00 | 0.07 | 0.07 | 81 | 1007.5 |
| 20260508230907 | 61 | 206 | 2.0 | 2.0 | 0.00 | 0.07 | 0.07 | 81 | 1007.2 |
| 20260508230403 | 61 | 244 | 1.0 | 1.0 | 0.00 | 0.07 | 0.07 | 80 | 1007.4 |
| 20260508225855 | 61 | 225 | 2.0 | 2.0 | 0.00 | 0.07 | 0.07 | 80 | 1007.6 |
| 20260508225352 | 61 | 222 | 2.0 | 2.0 | 0.00 | 0.07 | 0.07 | 80 | 1007.3 |
| 20260508224850 | 61 | 228 | 2.0 | 3.0 | 0.00 | 0.07 | 0.07 | 80 | 1007.2 |
| 20260508224347 | 61 | 252 | 2.0 | 2.0 | 0.00 | 0.07 | 0.07 | 79 | 1007.4 |
| 20260508223845 | 61 | 236 | 1.0 | 1.0 | 0.00 | 0.07 | 0.07 | 79 | 1007.3 |
| 20260508223342 | 61 | 240 | 1.0 | 1.0 | 0.00 | 0.07 | 0.07 | 78 | 1007.5 |
| 20260508222839 | 61 | 229 | 2.0 | 2.0 | 0.00 | 0.07 | 0.07 | 78 | 1007.5 |
| 20260508222336 | 61 | 238 | 3.0 | 3.0 | 0.00 | 0.07 | 0.07 | 77 | 1007.5 |
| 20260508221833 | 61 | 243 | 2.0 | 2.0 | 0.00 | 0.07 | 0.07 | 77 | 1007.5 |
| 20260508221328 | 61 | 215 | 1.0 | 1.0 | 0.00 | 0.07 | 0.07 | 77 | 1007.3 |
| 20260508220825 | 61 | 240 | 2.0 | 2.0 | 0.00 | 0.07 | 0.07 | 77 | 1007.5 |
| 20260508220321 | 61 | 260 | 3.0 | 3.0 | 0.00 | 0.07 | 0.07 | 77 | 1007.5 |
| 20260508215818 | 61 | 253 | 4.0 | 5.0 | 0.00 | 0.07 | 0.07 | 77 | 1007.5 |
| 20260508215315 | 61 | 249 | 2.0 | 2.0 | 0.00 | 0.07 | 0.07 | 77 | 1007.6 |
| 20260508214812 | 61 | 249 | 5.0 | 7.0 | 0.00 | 0.07 | 0.07 | 77 | 1007.4 |
| 20260508214309 | 62 | 221 | 3.0 | 3.0 | 0.00 | 0.07 | 0.07 | 78 | 1007.7 |
| 20260508213805 | 61 | 208 | 3.0 | 6.0 | 0.00 | 0.07 | 0.07 | 78 | 1007.5 |
| 20260508213302 | 62 | 202 | 5.0 | 7.0 | 0.00 | 0.07 | 0.07 | 78 | 1007.7 |
| 20260508212758 | 61 | 237 | 4.0 | 6.0 | 0.00 | 0.07 | 0.07 | 78 | 1007.6 |
| 20260508212255 | 61 | 180 | 3.0 | 5.0 | 0.00 | 0.07 | 0.07 | 79 | 1007.7 |
| 20260508211750 | 61 | 252 | 3.0 | 5.0 | 0.00 | 0.07 | 0.07 | 79 | 1007.6 |
| 20260508211246 | 61 | 182 | 5.0 | 6.0 | 0.00 | 0.07 | 0.07 | 78 | 1007.5 |
| 20260508210744 | 62 | 216 | 5.0 | 8.0 | 0.00 | 0.07 | 0.07 | 76 | 1007.7 |
| 20260508210241 | 63 | 253 | 2.0 | 2.0 | 0.00 | 0.07 | 0.07 | 75 | 1007.6 |
| 20260508205738 | 62 | 240 | 3.0 | 3.0 | 0.00 | 0.07 | 0.07 | 76 | 1007.5 |
| 20260508205234 | 62 | 232 | 3.0 | 3.0 | 0.00 | 0.07 | 0.07 | 73 | 1007.6 |
| 20260508204730 | 61 | 224 | 3.0 | 3.0 | 0.00 | 0.07 | 0.07 | 75 | 1007.5 |
| 20260508204227 | 61 | 227 | 3.0 | 5.0 | 0.00 | 0.07 | 0.07 | 74 | 1007.8 |
| 20260508203723 | 61 | 226 | 5.0 | 7.0 | 0.00 | 0.07 | 0.07 | 75 | 1007.8 |
| 20260508203219 | 61 | 187 | 3.0 | 5.0 | 0.00 | 0.07 | 0.07 | 77 | 1007.9 |
| 20260508202715 | 62 | 229 | 4.0 | 5.0 | 0.00 | 0.07 | 0.07 | 80 | 1007.9 |
| 20260508202213 | 62 | 237 | 2.0 | 2.0 | 0.00 | 0.07 | 0.07 | 83 | 1007.9 |
| 20260508201710 | 62 | 198 | 6.0 | 7.0 | 0.00 | 0.07 | 0.07 | 83 | 1008.2 |
| 20260508201206 | 62 | 196 | 4.0 | 6.0 | 0.00 | 0.07 | 0.07 | 83 | 1008.1 |
| 20260508200703 | 62 | 227 | 0.0 | 1.0 | 0.00 | 0.07 | 0.07 | 83 | 1008.3 |
| 20260508200159 | 62 | 215 | 2.0 | 3.0 | 0.00 | 0.07 | 0.07 | 84 | 1008.2 |
| 20260508195656 | 62 | 229 | 1.0 | 1.0 | 0.00 | 0.07 | 0.07 | 86 | 1008.4 |
| 20260508195152 | 62 | 228 | 0.0 | 0.0 | 0.00 | 0.07 | 0.07 | 86 | 1008.4 |
| 20260508194649 | 61 | 226 | 1.0 | 1.0 | 0.00 | 0.07 | 0.07 | 87 | 1008.6 |
| 20260508194146 | 61 | 227 | 1.0 | 1.0 | 0.00 | 0.07 | 0.07 | 87 | 1008.6 |
| 20260508193643 | 61 | 222 | 2.0 | 2.0 | 0.00 | 0.07 | 0.07 | 87 | 1008.4 |
| 20260508193139 | 60 | 229 | 1.0 | 2.0 | 0.00 | 0.07 | 0.07 | 88 | 1008.3 |
| 20260508192636 | 60 | 229 | 1.0 | 1.0 | 0.00 | 0.07 | 0.07 | 90 | 1008.4 |
| 20260508192134 | 59 | 202 | 3.0 | 5.0 | 0.00 | 0.07 | 0.07 | 92 | 1008.5 |
| 20260508191630 | 59 | 194 | 3.0 | 3.0 | 0.00 | 0.07 | 0.07 | 94 | 1008.4 |
| 20260508191127 | 59 | 217 | 0.0 | 1.0 | 0.00 | 0.07 | 0.07 | 95 | 1008.4 |
| 20260508190625 | 58 | 213 | 2.0 | 2.0 | 0.00 | 0.07 | 0.07 | 95 | 1008.6 |
| 20260508190121 | 57 | 223 | 1.0 | 1.0 | 0.00 | 0.07 | 0.07 | 95 | 1008.5 |
| 20260508185618 | 57 | 203 | 2.0 | 2.0 | 0.00 | 0.07 | 0.07 | 96 | 1008.5 |
| 20260508185115 | 58 | 230 | 0.0 | 1.0 | 0.00 | 0.07 | 0.07 | 96 | 1008.5 |
| 20260508184612 | 58 | 227 | 0.0 | 1.0 | 0.00 | 0.07 | 0.07 | 96 | 1008.7 |
| 20260508184109 | 57 | 224 | 0.0 | 0.0 | 0.00 | 0.07 | 0.07 | 96 | 1008.4 |
| 20260508183606 | 57 | 224 | 0.0 | 1.0 | 0.00 | 0.07 | 0.07 | 96 | 1008.5 |
| 20260508183102 | 57 | 183 | 3.0 | 3.0 | 0.00 | 0.07 | 0.07 | 96 | 1008.4 |
| 20260508182558 | 56 | 168 | 2.0 | 3.0 | 0.00 | 0.07 | 0.07 | 96 | 1008.5 |
| 20260508182055 | 56 | 190 | 1.0 | 2.0 | 0.00 | 0.07 | 0.07 | 96 | 1008.4 |
| 20260508181549 | 56 | 178 | 1.0 | 2.0 | 0.00 | 0.07 | 0.07 | 96 | 1008.4 |
| 20260508181048 | 56 | 190 | 2.0 | 2.0 | 0.00 | 0.07 | 0.07 | 96 | 1008.7 |
| 20260508180544 | 56 | 205 | 1.0 | 1.0 | 0.00 | 0.07 | 0.07 | 96 | 1008.9 |
| 20260508180041 | 56 | 209 | 0.0 | 0.0 | 0.07 | 0.07 | 0.07 | 96 | 1008.7 |
| 20260508175537 | 56 | 186 | 0.0 | 1.0 | 0.07 | 0.07 | 0.07 | 96 | 1008.7 |
| 20260508175035 | 55 | 160 | 3.0 | 3.0 | 0.00 | 0.06 | 0.06 | 96 | 1008.5 |
| 20260508174532 | 55 | 147 | 3.0 | 3.0 | 0.00 | 0.06 | 0.06 | 96 | 1008.9 |
| 20260508174029 | 55 | 189 | 1.0 | 1.0 | 0.00 | 0.06 | 0.06 | 96 | 1009.3 |
| 20260508173526 | 55 | 193 | 1.0 | 2.0 | 0.00 | 0.06 | 0.06 | 96 | 1009.4 |